Regional Weather Roundup
Issued by NWS Upton, NY

Current Version | Previous Version | Graphics & Text | Print | Product List | Glossary Off
Versions: 1 2 3 4 5 6 7 8 9 10 11 12 13 14 15 16 17 18 19 20 21 22 23 24 25 26 27

000
ASUS41 KOKX 181809
RWROKX

REGIONAL WEATHER ROUNDUP
NATIONAL WEATHER SERVICE NEW YORK NY
200 PM EDT WED OCT 18 2017

NOTE: "FAIR" INDICATES FEW OR NO CLOUDS BELOW 12,000 FEET WITH NO
SIGNIFICANT WEATHER AND/OR OBSTRUCTIONS TO VISIBILITY.

NYZ071-072-176-178-NJZ106-104-181900-
NEW YORK CITY METRO AREA

CITY           SKY/WX    TMP DP  RH WIND       PRES   REMARKS
Central Park   SUNNY     71  44  37 CALM      30.30F
Bronx Bot Gard   N/A     70  45  40 W6        30.30S
LaGuardia APRT SUNNY     71  44  37 NW3       30.27F
Kennedy INTL   SUNNY     69  46  43 SW9       30.29F
Breezy Point     N/A     63 N/A N/A SW7         N/A
Newark/Liberty MOSUNNY   73  44  35 VRB3      30.28F
Teterboro      SUNNY     71  44  37 S3        30.26F
$$

NYZ177-179-078>081-181900-
LONG ISLAND NEW YORK

CITY           SKY/WX    TMP DP  RH WIND       PRES   REMARKS
Jones Beach      N/A     63 N/A N/A W8          N/A
Matinecock PT    N/A     66 N/A N/A SW7         N/A
Farmingdale    SUNNY     71  46  40 W6        30.28F
MacArthur/ISP  MOSUNNY   71  47  42 VRB3      30.27F
Shirley        SUNNY     71  50  47 S8        30.28F
Mt Sinai Harb    N/A    N/A N/A N/A NW2         N/A
Westhampton    SUNNY     68  48  48 VRB6      30.29F
East Hampton   FAIR      68  48  48 SW6       30.27F
Montauk          N/A     68  52  56 SW7       30.28F
$$

NYZ052-065-067-181900-
HUDSON VALLEY

CITY           SKY/WX    TMP DP  RH WIND       PRES   REMARKS
White Plains   SUNNY     70  45  40 NW7       30.27F
Larchmont Harb   N/A     64 N/A N/A SE9         N/A
Croton On Huds   N/A     68 N/A N/A MISG        N/A
Newburgh       SUNNY     70  50  49 VRB6      30.28F
Montgomery     SUNNY     70  48  45 SW10      30.25F
Poughkeepsie   SUNNY     68  45  43 VRB6      30.26F
Albany         MOSUNNY   67  47  48 S5        30.25F
$$

NJZ001-105-106-008-010-013-015-019>022-104-181900-
NEW JERSEY

CITY           SKY/WX    TMP DP  RH WIND       PRES   REMARKS
Newark/Liberty MOSUNNY   73  44  35 VRB3      30.28F
Teterboro      SUNNY     71  44  37 S3        30.26F
Caldwell       SUNNY     71  49  45 S3        30.28F
Somerville     SUNNY     73  49  42 VRB3      30.27F
Linden         FAIR      70  44  39 CALM      30.28F
Perth Amboy      N/A     66 N/A N/A W5          N/A
Sussex         SUNNY     70  48  45 S6        30.27F
Andover          N/A     71  47  42 CALM      30.28F
Trenton        SUNNY     69  48  47 S6        30.29F
Millville      SUNNY     70  47  43 W8        30.33F
Atlantic City  SUNNY     70  46  42 NW6       30.32F
Wrightstown    SUNNY     70  45  40 NW6       30.32F
Toms River       N/A     71  48  43 VRB5      30.31F
Belmar         SUNNY     71  47  42 W5        30.31F
$$

PAZ047>061-062-071-181900-
EASTERN PENNSYLVANIA

CITY           SKY/WX    TMP DP  RH WIND       PRES   REMARKS
Philadelphia   SUNNY     69  44  40 SW6       30.31F
Allentown      SUNNY     71  46  40 SW6       30.29F
Scranton       SUNNY     66  44  45 W6        30.30F
$$

CTZ002-004>006-009-010-012-RIZ004-006-007-MAZ004-011-015-181900-
SOUTHERN NEW ENGLAND
 IN CT

CITY           SKY/WX    TMP DP  RH WIND       PRES   REMARKS
Bradley INTL   MOSUNNY   72  44  36 VRB6      30.24F
Hartford       SUNNY     72  46  39 SW7       30.24F
Danbury        SUNNY     69  46  43 VRB5      30.28F
Wtrbury/Oxford SUNNY     68  45  43 CALM      30.28F
Norwalk Harbor   N/A     63 N/A N/A S10         N/A
Bridgeport     SUNNY     67  50  54 SW12      30.27F
Meriden        SUNNY     71  44  37 NW6       30.25F
New Haven      SUNNY     65  49  56 S9        30.27F
Chester        FAIR      73  45  35 W9        30.26F
Groton         SUNNY     65  52  62 SW14      30.25F
Wilimantic     SUNNY     71  43  36 W9        30.25F

 IN RI

CITY           SKY/WX    TMP DP  RH WIND       PRES   REMARKS
Providence     MOSUNNY   72  45  37 NW8       30.24F
Block Island   SUNNY     66  52  60 W13       30.26F
Westerly       SUNNY     69  48  47 SW8       30.26F
 IN MA

CITY           SKY/WX    TMP DP  RH WIND       PRES   REMARKS
Boston         MOSUNNY   70  42  36 W8        30.22F
Worcester      SUNNY     66  39  37 W9        30.24F
Westfield      SUNNY     71  43  36 CALM      30.23F
Provincetown   SUNNY     65  49  56 W7        30.23F
Nantucket      SUNNY     65  55  70 W15       30.23F
$$

ANZ330-335-338-340-345-350-353-355-181900-
COASTAL MARINE OBSERVATIONS


STATION/POSITION TIME  SKY/WX   TEMP    WIND        PRES    VSBY  WAVE
                                AIR SEA DIR/SP/G                  HT/PER
                 (UTC)          (F)     (DEG/KT/KT) (MB)    (MI)  (FT/S)
NY HARB ENTRANCE 1650            60 65  280/  8/ 10 1026.1          2/10
20 S FIRE ISLAND 1750            61 64  270/ 10/ 12 1026.0          3/10
GREAT SOUTH BAY  1730            62 62  220/  8/  8   N/A
15 E BARNEGAT LI 1730               66                N/A           3/10
HUDSON CANYON    1750            62 66  260/ 12/ 14 1026.2          3/10
KINGS POINT      1748            67 65  220/  3/  4 1026.0
EXECUTION ROCKS  1730            66     190/  6/  8   N/A
WESTERN LI SOUND 1649            65     220/  8/ 12   N/A           0
CENTRAL LI SOUND NOT AVBL
EASTERN LI SOUND NOT AVBL
ROBBINS REEF     1748            64     170/  8/  9 1026.1
$$


>>>>>>>>>>>>>>>>>>>>>>>>>>>> KEY <<<<<<<<<<<<<<<<<<<<<<<<<<<
>                                                          <
>     SKY/WX - Sky Condition/Present Weather               <
>     TMP    - Temperature in Fahrenheit                   <
>     DP     - Dew Point in Fahrenheit                     <
>     RH     - Relative Humidity in Percent                <
>     WIND   - Direction (from) and Speed in MPH           <
>     PRES   - Mean Sea Level Pressure (inches of Hg)      <
>     WCI    - Wind Chill Index                            <
>     VSB    - VISIBILITY IN MILES                         <
>     HX     - HEAT INDEX                                  <
>     TC     - TEMPERATURE IN CELSIUS                      <
>     VRB    - VARIABLE WIND DIRECTION                     <
>                                                          <
>>>>>>>>>>>>>>>>>>>>>>>>>>>> KEY <<<<<<<<<<<<<<<<<<<<<<<<<<<




USA.gov is the U.S. government's official web portal to all federal, state and local government web resources and services.